This is the latest recevied weather packets stored in our database for station/object KA9CBS. If no packets are shown the sender has not sent any weather packets the latest 10 day(s).
| Time | Temp. | Humidity | Pressure | Rain* | Wind** | Luminosity | Snow |
|---|---|---|---|---|---|---|---|
| 1787880091 | 23.89° C | 72% | 1017.8 hPa | 0 mm | - | 0 W/m² | - |
| 1787879786 | 23.89° C | 71% | 1017.3 hPa | 0 mm | - | 0 W/m² | - |
| 1787879481 | 23.89° C | 70% | 1017.5 hPa | 0 mm | - | 0 W/m² | - |
| 1787879177 | 23.89° C | 72% | 1017.4 hPa | 0 mm | - | 0 W/m² | - |
| 1787878875 | 23.89° C | 72% | 1017.6 hPa | 0 mm | - | 0 W/m² | - |
| 1787878573 | 24.44° C | 71% | 1017.3 hPa | 0 mm | - | 0 W/m² | - |
| 1787878268 | 24.44° C | 70% | 1017.4 hPa | 0 mm | - | 0 W/m² | - |
| 1787877964 | 25° C | 69% | 1017.3 hPa | 0 mm | - | 0 W/m² | - |
| 1787877659 | 24.44° C | 69% | 1017.3 hPa | 0 mm | - | 0 W/m² | - |
| 1787877355 | 24.44° C | 72% | 1017.2 hPa | 0 mm | - | 1 W/m² | - |
| 1787877050 | 25° C | 73% | 1017.2 hPa | 0 mm | - | 2 W/m² | - |
| 1787876745 | 25.56° C | 71% | 1017.2 hPa | 0 mm | - | 5 W/m² | - |
| 1787876440 | 26.11° C | 64% | 1017.3 hPa | 0 mm | - | 7 W/m² | - |
| 1787876139 | 26.11° C | 64% | 1017.3 hPa | 0 mm | - | 11 W/m² | - |
| 1787875839 | 26.11° C | 63% | 1017.3 hPa | 0 mm | - | 14 W/m² | - |
| 1787875532 | 26.11° C | 62% | 1017.3 hPa | 0 mm | - | 17 W/m² | - |
| 1787875227 | 26.11° C | 62% | 1017.5 hPa | 0 mm | - | 19 W/m² | - |
| 1787874925 | 26.67° C | 63% | 1017.4 hPa | 0 mm | - | 28 W/m² | - |
| 1787874621 | 26.67° C | 64% | 1017.5 hPa | 0 mm | - | 25 W/m² | - |
| 1787874314 | 26.67° C | 62% | 1017.6 hPa | 0 mm | - | 28 W/m² | - |
| 1787874014 | 27.22° C | 61% | 1017.6 hPa | 0 mm | - | 30 W/m² | - |
| 1787873714 | 27.22° C | 62% | 1017.5 hPa | 0 mm | - | 36 W/m² | - |
| 1787873409 | 27.22° C | 64% | 1017.6 hPa | 0 mm | - | 34 W/m² | - |
| 1787873109 | 27.22° C | 62% | 1017.6 hPa | 0 mm | - | 38 W/m² | - |
| 1787872803 | 27.22° C | 60% | 1017.5 hPa | 0 mm | - | 43 W/m² | - |
* Rain latest hour (hover to see other rain measurements)
** Current wind speed in m/s (hover to see current wind gust speed)